Location: Spring Creek
(38.2870°N, 100.2160°W)
Time: 04:00:11
(UTC+00:00)

CZ-4 R/B - Pass Details

Date: 08 May 2021
Orbit: 531 x 597 km, 97.7° (Epoch: 22 June)

Event Time Altitude Azimuth Distance (km) Brightness Sun altitude
Rises 02:11:52 0° 197° (SSW) 2,805 4.8 -6.8°
Reaches altitude 10° 02:14:24 10° 212° (SSW) 1,900 4.1 -7.2°
Maximum altitude 02:17:40 23° 264° (W) 1,261 3.9 -7.8°
Drops below altitude 10° 02:20:55 10° 317° (NW) 1,882 5.4 -8.3°
Sets 02:23:26 0° 333° (NNW) 2,772 6.0 -8.8°
